• In Österreich
  • Länderverzeichnis
  • Für 7 Tage
  • Wassertemperatur
  • Satellitenkarten
  • Wetterkarte
  • News
  • Widgets
  • user-avatar
    Anmelden

    Stündliche Wetter Benguela

    Heute, 22 Mai, Dienstag

    Zeit Temperatur Niederschläge Wind Luftdruck Luftfeuchtigkeit
    00:00 +26°C° 0 mm 2 m/S 759 mmHg 79%
    01:00 +26°C° 0 mm 2 m/S 759 mmHg 80%
    02:00 +26°C° 0 mm 2 m/S 759 mmHg 77%
    03:00 +26°C° 0 mm 2 m/S 759 mmHg 74%
    04:00 +26°C° 0 mm 2 m/S 759 mmHg 72%
    05:00 +26°C° 0 mm 2 m/S 759 mmHg 69%
    06:00 +27°C° 0 mm 2 m/S 759 mmHg 66%
    07:00 +27°C° 0 mm 2 m/S 759 mmHg 63%
    08:00 +28°C° 0 mm 1 m/S 759 mmHg 62%
    09:00 +29°C° 0 mm 1 m/S 759 mmHg 60%
    10:00 +30°C° 0 mm 1 m/S 759 mmHg 58%
    11:00 +32°C° 0 mm 2 m/S 759 mmHg 52%
    12:00 +36°C° 0 mm 2 m/S 759 mmHg 46%
    13:00 +37°C° 0 mm 3 m/S 759 mmHg 45%
    14:00 +36°C° 0 mm 3 m/S 758 mmHg 46%
    15:00 +36°C° 0 mm 3 m/S 758 mmHg 48%
    16:00 +35°C° 0 mm 4 m/S 758 mmHg 50%
    17:00 +33°C° 0 mm 3 m/S 758 mmHg 55%
    18:00 +31°C° 0 mm 3 m/S 759 mmHg 60%
    19:00 +29°C° 0 mm 2 m/S 759 mmHg 65%
    20:00 +29°C° 0 mm 2 m/S 759 mmHg 65%
    21:00 +28°C° 0 mm 2 m/S 760 mmHg 65%
    22:00 +28°C° 0 mm 2 m/S 760 mmHg 66%
    23:00 +28°C° 0 mm 2 m/S 760 mmHg 64%

    Morgen, 23 Mai, Mittwoch

    Zeit Temperatur Niederschläge Wind Luftdruck Luftfeuchtigkeit
    00:00 +28°C° 0 mm 2 m/S 760 mmHg 63%
    01:00 +28°C° 0 mm 2 m/S 760 mmHg 61%
    02:00 +29°C° 0 mm 2 m/S 760 mmHg 60%
    03:00 +29°C° 0 mm 2 m/S 759 mmHg 59%
    04:00 +29°C° 0 mm 2 m/S 759 mmHg 58%
    05:00 +28°C° 0 mm 2 m/S 759 mmHg 58%
    06:00 +28°C° 0 mm 2 m/S 760 mmHg 58%
    07:00 +28°C° 0 mm 2 m/S 760 mmHg 57%
    08:00 +30°C° 0 mm 2 m/S 760 mmHg 50%
    09:00 +34°C° 0 mm 2 m/S 760 mmHg 42%
    10:00 +37°C° 0 mm 2 m/S 760 mmHg 34%
    11:00 +37°C° 0 mm 3 m/S 760 mmHg 33%
    12:00 +38°C° 0 mm 3 m/S 759 mmHg 32%
    13:00 +40°C° 0 mm 4 m/S 759 mmHg 31%
    14:00 +38°C° 0 mm 3 m/S 758 mmHg 36%
    15:00 +37°C° 0 mm 3 m/S 758 mmHg 41%
    16:00 +35°C° 0 mm 3 m/S 758 mmHg 46%
    17:00 +34°C° 0 mm 3 m/S 758 mmHg 53%
    18:00 +31°C° 0 mm 2 m/S 758 mmHg 59%
    19:00 +29°C° 0 mm 1 m/S 759 mmHg 66%
    20:00 +28°C° 0 mm 1 m/S 759 mmHg 67%
    21:00 +28°C° 0 mm 1 m/S 760 mmHg 68%
    22:00 +28°C° 0 mm 1 m/S 760 mmHg 69%
    23:00 +28°C° 0 mm 1 m/S 760 mmHg 67%

    übermorgen, 24 Mai, Donnerstag

    Zeit Temperatur Niederschläge Wind Luftdruck Luftfeuchtigkeit
    00:00 +27°C° 0 mm 1 m/S 760 mmHg 66%
    01:00 +27°C° 0 mm 1 m/S 760 mmHg 64%
    02:00 +27°C° 0 mm 1 m/S 760 mmHg 62%
    03:00 +27°C° 0 mm 1 m/S 759 mmHg 60%
    04:00 +27°C° 0 mm 2 m/S 759 mmHg 57%
    05:00 +27°C° 0 mm 2 m/S 759 mmHg 56%
    06:00 +26°C° 0 mm 2 m/S 759 mmHg 55%
    07:00 +26°C° 0 mm 2 m/S 760 mmHg 54%
    08:00 +29°C° 0 mm 2 m/S 760 mmHg 46%
    09:00 +32°C° 0 mm 2 m/S 760 mmHg 38%
    10:00 +37°C° 0 mm 2 m/S 760 mmHg 30%
    11:00 +37°C° 0 mm 3 m/S 759 mmHg 29%
    12:00 +38°C° 0 mm 3 m/S 759 mmHg 28%
    13:00 +40°C° 0 mm 4 m/S 758 mmHg 27%
    14:00 +38°C° 0 mm 4 m/S 757 mmHg 32%
    15:00 +37°C° 0 mm 3 m/S 757 mmHg 37%
    16:00 +36°C° 0 mm 3 m/S 756 mmHg 42%
    17:00 +34°C° 0 mm 3 m/S 757 mmHg 48%
    18:00 +30°C° 0 mm 2 m/S 757 mmHg 55%
    19:00 +28°C° 0 mm 1 m/S 758 mmHg 62%
    20:00 +28°C° 0 mm 1 m/S 758 mmHg 63%
    21:00 +27°C° 0 mm 1 m/S 759 mmHg 63%
    22:00 +27°C° 0 mm 1 m/S 760 mmHg 64%
    23:00 +27°C° 0 mm 1 m/S 759 mmHg 64%

    25 Mai, Freitag

    Zeit Temperatur Niederschläge Wind Luftdruck Luftfeuchtigkeit
    00:00 +26°C° 0 mm 1 m/S 759 mmHg 64%
    01:00 +26°C° 0 mm 1 m/S 759 mmHg 63%
    02:00 +26°C° 0 mm 1 m/S 759 mmHg 62%
    03:00 +25°C° 0 mm 1 m/S 759 mmHg 60%
    04:00 +25°C° 0 mm 1 m/S 758 mmHg 58%
    05:00 +25°C° 0 mm 2 m/S 759 mmHg 56%
    06:00 +25°C° 0 mm 2 m/S 759 mmHg 54%
    07:00 +25°C° 0 mm 2 m/S 759 mmHg 52%
    08:00 +28°C° 0 mm 2 m/S 759 mmHg 45%
    09:00 +32°C° 0 mm 2 m/S 759 mmHg 37%
    10:00 +36°C° 0 mm 2 m/S 759 mmHg 30%
    11:00 +37°C° 0 mm 3 m/S 759 mmHg 28%
    12:00 +38°C° 0 mm 3 m/S 758 mmHg 27%
    13:00 +40°C° 0 mm 4 m/S 757 mmHg 26%
    14:00 +38°C° 0 mm 4 m/S 757 mmHg 31%
    15:00 +37°C° 0 mm 4 m/S 756 mmHg 36%
    16:00 +36°C° 0 mm 4 m/S 756 mmHg 41%
    17:00 +33°C° 0 mm 3 m/S 757 mmHg 49%
    18:00 +30°C° 0 mm 2 m/S 757 mmHg 58%
    19:00 +27°C° 0 mm 1 m/S 758 mmHg 66%
    20:00 +27°C° 0 mm 1 m/S 758 mmHg 68%
    21:00 +26°C° 0 mm 1 m/S 759 mmHg 70%
    22:00 +26°C° 0 mm 1 m/S 759 mmHg 72%
    23:00 +26°C° 0 mm 1 m/S 759 mmHg 71%

    26 Mai, Samstag

    Zeit Temperatur Niederschläge Wind Luftdruck Luftfeuchtigkeit
    00:00 +25°C° 0 mm 1 m/S 759 mmHg 70%
    01:00 +25°C° 0 mm 1 m/S 758 mmHg 69%
    02:00 +25°C° 0 mm 1 m/S 758 mmHg 66%
    03:00 +25°C° 0 mm 1 m/S 758 mmHg 63%
    04:00 +25°C° 0 mm 1 m/S 758 mmHg 60%
    05:00 +25°C° 0 mm 1 m/S 758 mmHg 58%
    06:00 +25°C° 0 mm 1 m/S 759 mmHg 56%
    07:00 +25°C° 0 mm 1 m/S 759 mmHg 54%
    08:00 +28°C° 0 mm 2 m/S 759 mmHg 46%
    09:00 +31°C° 0 mm 2 m/S 759 mmHg 39%
    10:00 +36°C° 0 mm 2 m/S 759 mmHg 31%
    11:00 +36°C° 0 mm 3 m/S 758 mmHg 31%
    12:00 +37°C° 0 mm 3 m/S 758 mmHg 31%
    13:00 +38°C° 0 mm 4 m/S 757 mmHg 31%
    14:00 +37°C° 0 mm 4 m/S 757 mmHg 35%
    15:00 +36°C° 0 mm 3 m/S 756 mmHg 38%
    16:00 +36°C° 0 mm 3 m/S 756 mmHg 42%
    17:00 +33°C° 0 mm 3 m/S 757 mmHg 49%
    18:00 +30°C° 0 mm 2 m/S 757 mmHg 56%
    19:00 +28°C° 0 mm 1 m/S 758 mmHg 63%
    20:00 +28°C° 0 mm 1 m/S 758 mmHg 62%
    21:00 +28°C° 0 mm 2 m/S 759 mmHg 60%
    22:00 +28°C° 0 mm 2 m/S 759 mmHg 59%
    23:00 +28°C° 0 mm 2 m/S 759 mmHg 59%

    27 Mai, Sonntag

    Zeit Temperatur Niederschläge Wind Luftdruck Luftfeuchtigkeit
    00:00 +28°C° 0 mm 2 m/S 759 mmHg 58%
    01:00 +27°C° 0 mm 2 m/S 759 mmHg 58%
    02:00 +27°C° 0 mm 2 m/S 759 mmHg 57%
    03:00 +26°C° 0 mm 2 m/S 758 mmHg 56%
    04:00 +26°C° 0 mm 2 m/S 758 mmHg 55%
    05:00 +26°C° 0 mm 2 m/S 759 mmHg 54%
    06:00 +26°C° 0 mm 2 m/S 759 mmHg 52%
    07:00 +26°C° 0 mm 2 m/S 759 mmHg 50%
    08:00 +29°C° 0 mm 2 m/S 760 mmHg 44%
    09:00 +32°C° 0 mm 2 m/S 760 mmHg 37%
    10:00 +36°C° 0 mm 2 m/S 760 mmHg 31%
    11:00 +37°C° 0 mm 3 m/S 759 mmHg 30%
    12:00 +38°C° 0 mm 3 m/S 758 mmHg 29%
    13:00 +40°C° 0 mm 4 m/S 758 mmHg 29%
    14:00 +38°C° 0 mm 4 m/S 757 mmHg 33%
    15:00 +36°C° 0 mm 4 m/S 757 mmHg 38%
    16:00 +35°C° 0 mm 4 m/S 757 mmHg 43%
    17:00 +33°C° 0 mm 3 m/S 758 mmHg 50%
    18:00 +30°C° 0 mm 2 m/S 758 mmHg 58%
    19:00 +28°C° 0 mm 1 m/S 759 mmHg 66%
    20:00 +28°C° 0 mm 1 m/S 760 mmHg 64%
    21:00 +29°C° 0 mm 1 m/S 760 mmHg 62%
    22:00 +29°C° 0 mm 1 m/S 760 mmHg 60%
    23:00 +29°C° 0 mm 2 m/S 760 mmHg 57%
    Mehr zeigen